BEIDOU 16 (C02)

Last updated on Mon Feb 13 2023 00:03:21 GMT+0000 (Coordinated Universal Time)

1 38953U 12059A 23043.48672007 -.00000163 00000+0 00000+0 0 9990 2 38953 1.5182 82.4099 0010834 296.4040 22.6776 1.00269913 37663

Satellite not in orbit

BEIDOU 16 (C02)